Location: La Pernelle
(49.6188°N, 1.2999°W)
Time: 16:26:05
(UTC+00:00)

Cosmos 1975 Rocket - Pass Details

Date: 12 June 2021
Orbit: 604 x 633 km, 82.5° (Epoch: 31 July)

Event Time Altitude Azimuth Distance (km) Brightness Sun altitude
Exits shadow 21:48:59 12° 177° (S) 1,819 4.9 -11.1°
Maximum altitude 21:52:55 67° 97° (E) 669 3.1 -11.5°
Drops below altitude 10° 21:57:17 10° 15° (NNE) 1,989 6.3 -11.8°
Sets 21:59:33 0° 13° (NNE) 2,905 7.3 -12.0°
